Location: ??????????
(54.7560°N, 39.1389°E)
Time: 13:00:12
(UTC+00:00)

H-2A R/B - Pass Details

Date: 19 May 2025
Orbit: 492 x 574 km, 98.2° (Epoch: 19 June)

Event Time Altitude Azimuth Distance (km) Brightness Sun altitude
Exits shadow 22:51:46 19° 220° (SW) 1,337 3.7 -12.7°
Maximum altitude 22:53:42 28° 264° (W) 1,035 3.5 -12.6°
Drops below altitude 10° 22:57:07 10° 325° (NW) 1,803 5.4 -12.4°
Sets 22:59:26 0° 337° (NNW) 2,683 6.5 -12.3°
